TimeEST,TemperatureF,Dew PointF,Humidity,Sea Level PressureIn,VisibilityMPH,Wind Direction,Wind SpeedMPH,Gust SpeedMPH,PrecipitationIn,Events,Conditions,WindDirDegrees,DateUTC
12:53 AM,62.1,57.0,84,30.20,10.0,NE,6.9,-,N/A,,Scattered Clouds,50,2012-11-30 05:53:00
1:53 AM,61.0,57.0,87,30.18,10.0,NE,8.1,-,N/A,,Clear,50,2012-11-30 06:53:00
2:53 AM,61.0,57.0,87,30.19,10.0,NE,5.8,-,N/A,,Clear,40,2012-11-30 07:53:00
3:53 AM,60.1,57.0,90,30.18,10.0,NE,5.8,-,N/A,,Clear,50,2012-11-30 08:53:00
4:53 AM,60.1,57.0,90,30.18,10.0,NE,6.9,-,N/A,,Partly Cloudy,50,2012-11-30 09:53:00
5:53 AM,60.1,57.0,90,30.19,10.0,NE,5.8,-,N/A,,Clear,50,2012-11-30 10:53:00
6:53 AM,60.1,57.0,90,30.21,10.0,NE,4.6,-,N/A,,Scattered Clouds,50,2012-11-30 11:53:00
7:53 AM,63.0,57.0,81,30.22,10.0,ENE,6.9,-,N/A,,Mostly Cloudy,60,2012-11-30 12:53:00
8:53 AM,66.9,57.0,70,30.22,10.0,ENE,8.1,-,N/A,,Partly Cloudy,70,2012-11-30 13:53:00
9:53 AM,73.0,59.0,61,30.23,10.0,ENE,12.7,-,N/A,,Scattered Clouds,70,2012-11-30 14:53:00
10:53 AM,75.9,57.9,54,30.22,10.0,East,12.7,23.0,N/A,,Mostly Cloudy,90,2012-11-30 15:53:00
12:53 PM,77.0,59.0,54,30.16,10.0,East,10.4,19.6,N/A,,Mostly Cloudy,90,2012-11-30 17:53:00
1:53 PM,78.1,60.1,54,30.14,10.0,East,13.8,-,N/A,,Overcast,100,2012-11-30 18:53:00
2:53 PM,75.9,59.0,56,30.13,10.0,East,10.4,-,N/A,,Overcast,90,2012-11-30 19:53:00
3:53 PM,75.9,57.9,54,30.14,10.0,East,11.5,-,N/A,,Overcast,90,2012-11-30 20:53:00
4:53 PM,75.0,57.0,53,30.15,10.0,East,10.4,17.3,N/A,,Overcast,80,2012-11-30 21:53:00
5:53 PM,73.0,57.0,57,30.16,10.0,East,6.9,-,N/A,,Overcast,100,2012-11-30 22:53:00
6:53 PM,70.0,57.0,63,30.16,10.0,East,4.6,-,N/A,,Clear,90,2012-11-30 23:53:00
7:53 PM,69.1,57.0,65,30.17,10.0,ENE,4.6,-,N/A,,Clear,60,2012-12-01 00:53:00
8:53 PM,66.0,57.0,73,30.19,10.0,ENE,4.6,-,N/A,,Clear,60,2012-12-01 01:53:00
9:53 PM,66.9,57.9,73,30.18,9.0,ENE,6.9,-,N/A,,Clear,70,2012-12-01 02:53:00
10:53 PM,63.0,57.0,81,30.19,10.0,NE,4.6,-,N/A,,Clear,50,2012-12-01 03:53:00
11:53 PM,63.0,57.0,81,30.18,10.0,NE,3.5,-,N/A,,Clear,40,2012-12-01 04:53:00